Regional Weather Roundup
Issued by NWS

Home | Current Version | Previous Version | Graphics & Text | Print | Product List | Glossary On
Versions: 1 2 3 4 5 6 7 8 9 10 11 12 13 14 15 16 17 18 19 20 21 22 23 24 25 26 27 28 29 30 31 32 33 34 35 36 37 38 39 40 41 42 43 44 45 46 47 48 49 50
000
ASUS43 KOAX 221910
RWRNE

WEATHER ROUNDUP FOR NEBRASKA
NATIONAL WEATHER SERVICE OMAHA NE
200 PM CDT TUE APR 22 2014

NOTES: SATELLITE DATA IS BEING USED TO AUGMENT CLOUD COVER ABOVE
       12000 FEET.
       "FAIR" INDICATES FEW OR NO CLOUDS BELOW 12,000 FEET WITH NO
       SIGNIFICANT WEATHER AND/OR OBSTRUCTIONS TO VISIBILITY.

  * THESE STATIONS DO NOT REPORT WEATHER SUCH AS RAIN...SNOW OR FOG.

NEZ001>004-019>022-054>056-222000-
NEBRASKA PANHANDLE

CITY           SKY/WX    TMP DP  RH WIND       PRES   REMARKS
SCOTTSBLUFF    CLOUDY    76  43  30 S14       29.81F
ALLIANCE       PTSUNNY   75  41  29 S24G30    29.83F
CHADRON        CLOUDY    75  45  34 S20       29.76F
KIMBALL        MOSUNNY   74  37  26 S16       29.85F
SIDNEY         CLOUDY    75  43  31 S18       29.86F
$$

NEZ057>060-069>072-079>082-222000-
SOUTHWEST NEBRASKA

CITY           SKY/WX    TMP DP  RH WIND       PRES   REMARKS
NORTH PLATTE   MOSUNNY   74  31  20 S25G36    29.92F
IMPERIAL       PTSUNNY   74  34  23 S26G35    29.89F
LEXINGTON      SUNNY     71  32  24 S30       29.97F
MCCOOK         MOSUNNY   71  34  25 S28G39    29.96F
OGALLALA       MOSUNNY   71  33  24 S24G31    29.88F
$$

NEZ005>010-023>029-035>040-094-222000-
NORTH CENTRAL NEBRASKA

CITY           SKY/WX    TMP DP  RH WIND       PRES   REMARKS
VALENTINE      SUNNY     74  30  19 S30G36    29.86F
AINSWORTH      SUNNY     71  31  22 S26G33    29.91F
BROKEN BOW     MOSUNNY   68  31  25 S23G35    29.97F
O`NEILL        CLOUDY    66  24  20 SE22G29   29.99F
ORD            MOSUNNY   67  31  26 S21G29    30.00F
THEDFORD       SUNNY     72  29  20 S23G31    29.91F
$$

NEZ041-046>049-061>064-073>077-083>087-222000-
SOUTH CENTRAL NEBRASKA

CITY           SKY/WX    TMP DP  RH WIND       PRES   REMARKS
GRAND ISLAND   CLOUDY    67  30  25 S20G25    30.05F
AURORA         PTSUNNY   67  32  26 SE16G23   30.06F
HASTINGS       PTSUNNY   66  30  26 S15G22    30.04F
HEBRON         SUNNY     70  28  21 SE9G17    30.07F
HOLDREGE       PTSUNNY   69  32  25 S18G31    30.01F
KEARNEY *      CLOUDY    66  36  32 SE21G28   30.03F
YORK           MOSUNNY   66  30  26 S13G20    30.07F
$$

NEZ011>018-030>034-042>045-222000-
NORTHEAST NEBRASKA

CITY           SKY/WX    TMP DP  RH WIND       PRES   REMARKS
NORFOLK        PTSUNNY   66  28  24 SE13G22   30.05F
ALBION         PTSUNNY   67  28  23 S15       30.04F
BLAIR          SUNNY     64  30  28 SE6       30.09F
COLUMBUS *     SUNNY     66  34  30 SE13      30.08F
FREMONT        SUNNY     64  29  27 S6        30.10F
TEKAMAH        SUNNY     66  29  24 E6        30.09F
$$

NEZ050>053-065>068-078-088>093-222000-
SOUTHEAST NEBRASKA

CITY           SKY/WX    TMP DP  RH WIND       PRES   REMARKS
LINCOLN        SUNNY     66  31  27 SE7       30.10F
OMAHA EPPLEY   MOSUNNY   64  31  28 S6        30.10F
BEATRICE       SUNNY     67  29  24 SE7       30.08F
FALLS CITY     SUNNY     67  30  25 VRB7      30.09F
NEBRASKA CITY  SUNNY     64  31  28 CALM      30.11F
PLATTSMOUTH    SUNNY     64  27  25 E7        30.11F
$$

NEZ044-045-051>053-067-222000-
OMAHA AREA

CITY           SKY/WX    TMP DP  RH WIND       PRES   REMARKS
OMAHA EPPLEY   MOSUNNY   64  31  28 S6        30.10F
BLAIR          SUNNY     64  30  28 SE6       30.09F
FREMONT        SUNNY     64  29  27 S6        30.10F
MILLARD        SUNNY     63  32  31 CALM      30.10F
OFFUTT AFB     SUNNY     64  34  31 E8        30.10F
PLATTSMOUTH    SUNNY     64  27  25 E7        30.11F
WAHOO          FAIR      65  26  23 SE8       30.09F
$$



USA.gov is the U.S. government's official web portal to all federal, state and local government web resources and services.